Theta_e
334 335 336 336 336 337 337 337 337 336 336 337 338 339 338 338 339 340 340 340 340 339 340 339 339 339 339 338 338 338 337 337 337 337 337 338 338 338 338 337 337 337 337 337 338 338 337 336 336 336 335 335 335 335 335 335 334 335 335 335 335 335 336 336 336 335 335 335 334 334 333 333 333 335 335 336 336 335 335 335 335 335 336 336 336
336 337 336 336 337 337 337 336 336 336 337 337 339 339 339 339 339 341 340 340 340 339 339 339 339 339 338 338 337 338 337 336 337 337 336 336 336 336 336 335 335 335 335 336 336 335 335 334 334 334 334 334 334 334 334 334 333 333 333 334 334 334 334 334 335 335 335 335 334 334 335 333 333 335 335 334 333 333 334 335 335 335 335 335 336
339 338 337 337 337 336 336 336 336 336 337 338 339 339 339 339 339 340 340 339 339 339 339 338 339 339 338 337 337 337 336 336 337 336 335 335 334 334 334 333 333 334 334 334 334 334 333 333 333 333 333 333 333 333 332 332 332 331 332 331 331 331 332 333 333 333 334 335 334 335 336 336 336 336 333 332 333 334 334 334 334 334 335 335 336
341 339 338 338 337 337 336 336 336 336 337 337 338 339 339 339 339 339 339 338 338 338 338 338 338 337 336 336 336 336 336 336 336 336 335 333 333 333 333 332 333 332 332 332 332 332 332 332 332 332 330 330 330 330 329 329 329 329 329 329 328 329 330 331 330 330 333 334 333 335 335 336 337 335 332 332 333 334 333 333 333 334 335 336 335
342 339 338 338 337 338 337 336 336 336 336 337 337 338 338 338 338 338 338 337 338 337 337 337 336 336 335 335 335 335 335 335 336 336 334 332 332 332 332 332 331 330 330 330 330 330 330 330 330 329 328 327 327 327 326 326 326 326 327 327 327 327 328 328 327 327 329 329 330 332 334 335 335 333 333 333 332 332 332 332 332 332 334 335 335
340 339 338 338 338 338 337 336 336 335 336 337 337 337 337 337 338 338 337 337 337 337 336 336 335 335 336 335 335 334 333 334 335 335 333 332 331 330 330 330 329 328 328 327 327 327 327 327 327 327 326 325 325 325 325 324 324 324 325 325 325 325 325 325 325 324 325 325 325 327 329 331 331 331 333 333 331 331 331 331 331 330 329 332 334
339 338 337 337 338 338 337 336 336 336 336 336 337 337 337 337 337 337 337 336 336 336 336 335 335 335 336 336 335 334 333 335 335 334 332 331 330 329 328 328 327 327 326 326 325 325 324 324 324 325 325 324 323 323 323 322 322 323 323 323 323 323 323 323 323 322 323 323 322 323 324 325 326 327 329 329 329 329 327 328 329 327 326 328 330
339 338 337 337 338 338 337 336 335 335 336 336 336 336 336 336 337 337 336 335 336 336 336 335 335 335 335 334 334 333 334 335 334 332 331 330 328 327 326 326 326 325 325 324 323 323 322 322 322 322 322 322 321 321 320 320 320 321 322 321 321 321 321 320 320 320 321 321 320 321 321 321 322 323 324 324 326 326 325 325 325 324 324 326 327
338 338 338 337 337 337 337 336 335 335 336 336 336 336 336 336 336 336 336 336 336 335 335 335 334 334 334 333 333 334 334 334 332 330 329 328 327 326 326 325 324 323 322 322 321 321 320 320 320 320 320 319 319 319 319 319 319 319 319 319 319 319 318 318 318 317 317 318 318 319 319 319 320 321 321 321 323 324 324 324 323 323 323 323 323
339 338 338 337 337 337 336 336 336 336 336 336 336 335 335 335 335 335 335 335 335 334 333 333 333 333 333 333 333 334 334 332 331 329 328 327 327 326 325 324 322 321 320 319 319 319 319 319 318 318 318 318 317 317 317 318 318 317 317 317 316 316 316 316 316 315 315 315 316 316 317 318 319 320 319 320 321 321 322 321 321 321 321 321 320
339 338 338 338 337 337 337 337 336 336 336 335 335 335 335 335 334 335 334 334 333 333 333 332 332 333 333 333 334 334 333 331 329 328 327 326 325 324 323 321 320 319 318 318 318 318 318 318 317 316 315 316 316 316 316 317 316 315 315 314 314 315 315 314 315 314 314 314 314 315 315 316 318 319 318 318 318 319 319 318 319 319 319 319 319
339 338 338 337 337 337 337 337 336 336 335 335 335 335 335 334 333 334 334 333 333 332 332 333 333 334 334 334 334 333 331 329 328 326 326 325 324 323 322 320 319 318 318 317 317 317 316 316 315 315 314 315 315 315 315 315 315 314 314 313 314 314 314 314 314 313 313 313 313 314 315 316 317 317 316 316 316 317 317 317 317 317 317 318 318
339 339 339 337 337 337 337 337 336 336 335 335 335 334 334 333 333 333 333 332 332 332 331 332 333 333 333 333 332 330 328 327 326 325 324 324 324 322 320 318 318 317 317 317 316 316 315 314 314 314 314 314 314 314 314 314 313 313 312 312 313 313 313 314 314 313 312 313 313 313 314 314 315 315 314 313 313 314 315 315 315 315 315 315 315
340 339 338 337 337 337 337 337 336 336 335 334 334 334 334 333 332 331 330 330 330 330 330 330 331 331 331 331 329 327 326 325 324 323 323 322 322 320 319 318 317 316 316 316 316 315 314 314 314 313 313 314 313 314 313 313 312 311 311 311 312 312 312 312 313 313 312 312 312 313 312 311 311 311 311 311 311 311 311 311 311 311 312 312 312
339 338 338 337 337 337 336 336 336 335 335 334 334 333 332 331 329 329 328 328 328 329 329 328 328 328 328 328 327 326 324 323 322 322 322 321 320 319 318 317 316 315 315 315 315 314 314 313 313 313 313 313 313 312 312 312 311 310 310 311 311 311 311 311 312 311 311 310 310 310 309 308 308 308 308 308 309 308 308 307 307 308 308 309 309
338 338 337 337 337 337 336 335 335 334 334 334 332 331 330 328 327 327 326 326 326 326 326 326 326 325 325 325 324 324 323 322 321 320 320 320 319 318 317 316 315 315 314 313 314 314 313 312 312 312 312 312 311 311 310 310 309 309 310 310 310 310 310 310 310 309 309 309 309 308 307 306 306 306 306 306 306 305 304 304 305 306 306 307 307
338 338 337 336 336 336 335 334 334 333 333 332 330 329 328 327 326 325 324 324 324 324 324 324 323 323 322 322 322 322 322 321 320 319 319 318 318 317 316 315 314 314 313 313 312 312 312 311 311 311 311 311 310 310 310 309 309 309 309 309 310 310 309 309 309 308 308 308 307 306 305 304 304 305 304 304 304 303 303 303 303 304 304 305 305
338 337 336 336 336 335 335 333 333 333 332 331 329 328 327 325 324 323 322 322 322 322 322 322 321 321 320 320 320 320 319 319 319 318 317 316 316 315 315 315 314 313 313 312 311 310 309 309 308 309 310 310 310 310 310 309 309 309 309 309 309 308 308 308 307 306 306 306 305 305 304 303 303 303 303 302 302 302 302 302 302 302 303 303 304
338 337 335 335 335 335 334 333 332 332 331 329 328 327 325 324 323 322 321 321 321 320 320 320 320 320 319 319 318 318 318 317 317 317 316 315 315 315 314 314 313 312 311 310 309 308 307 307 307 307 308 309 310 309 309 309 308 308 308 307 307 307 306 306 305 305 305 305 304 303 303 302 302 302 301 301 301 301 301 301 301 301 302 302 303
337 336 335 335 335 334 333 332 331 330 329 328 326 325 324 322 321 321 320 319 319 319 319 319 319 318 318 318 318 318 318 317 316 316 315 315 314 314 313 312 311 310 309 308 307 306 305 305 305 306 307 308 309 309 308 308 308 307 307 306 306 305 305 304 304 304 303 303 303 303 302 302 302 301 301 301 300 300 300 300 300 300 300 301 301
337 335 335 334 334 333 332 331 330 329 328 326 324 323 322 322 320 320 319 318 318 318 318 318 318 317 317 317 316 317 316 316 315 315 315 314 313 312 312 311 310 309 308 306 305 304 304 304 303 304 306 308 308 308 308 307 307 306 306 305 305 305 304 304 303 303 303 303 302 302 301 301 301 301 300 300 300 300 299 299 299 299 299 300 300
336 335 335 334 333 332 330 329 328 327 326 324 323 322 321 321 320 319 318 318 318 318 318 317 317 316 316 316 315 315 315 315 315 314 313 313 312 311 310 309 308 307 306 305 304 304 303 302 301 302 305 307 307 307 307 306 306 305 305 304 304 304 303 303 302 302 302 302 301 301 301 300 300 300 299 299 299 299 299 298 299 299 299 299 300
336 335 334 332 331 330 329 328 327 326 324 323 322 321 320 320 319 318 318 318 318 317 317 317 316 315 315 315 315 314 314 314 314 313 312 312 311 310 308 307 306 306 305 304 303 303 301 300 298 301 305 307 306 306 306 306 305 305 304 304 303 303 302 302 302 301 301 301 301 301 300 300 300 299 299 299 298 298 297 298 298 298 299 299 300
335 333 332 331 329 329 328 327 325 324 322 321 321 320 319 319 318 318 318 317 317 316 316 315 315 314 314 314 314 314 314 314 313 312 311 311 310 309 307 306 305 304 303 302 301 299 298 298 298 300 304 306 306 306 306 305 304 304 303 303 303 302 302 301 301 300 300 301 301 301 300 299 299 299 298 298 297 297 297 298 298 298 298 299 299
334 332 331 330 328 328 327 325 324 322 321 321 320 319 319 318 318 317 317 316 316 315 315 315 314 314 314 314 314 313 313 313 312 312 311 310 309 308 307 306 305 304 303 302 299 297 296 298 299 300 303 305 305 305 305 305 304 303 303 303 302 302 301 300 300 300 300 301 301 300 299 299 298 298 297 297 297 297 298 298 298 298 298 299 299
333 332 330 329 328 327 326 324 322 322 321 320 319 319 318 317 317 316 316 316 315 315 314 314 313 313 313 313 313 312 312 312 311 311 310 309 309 308 307 305 304 304 303 302 300 297 297 299 300 300 302 303 304 305 305 304 303 303 302 302 302 301 300 300 300 300 300 300 300 299 299 299 298 297 297 298 298 298 298 298 298 298 299 299 299
332 331 330 329 327 326 324 323 322 321 321 320 319 318 317 316 316 315 315 315 314 314 313 313 313 313 313 312 312 312 311 310 310 309 308 308 307 306 305 305 304 303 303 302 300 298 297 299 300 301 301 302 303 304 304 304 303 302 302 302 301 300 300 300 299 299 299 299 299 299 299 299 297 297 297 298 298 298 298 298 299 299 299 299 299
331 330 329 328 326 324 323 322 322 321 321 320 319 317 316 315 315 315 315 314 314 313 313 312 312 312 312 312 311 311 310 310 309 308 308 307 307 306 305 304 304 303 302 302 300 298 298 299 300 300 301 302 302 303 304 303 303 302 302 301 301 300 300 299 298 298 299 299 299 299 299 298 297 297 298 298 298 298 299 299 299 299 299 299 299
331 330 328 327 325 323 322 322 322 321 320 319 317 316 315 315 315 314 314 314 313 313 312 312 312 312 311 311 310 310 310 309 308 308 307 307 306 306 305 304 303 303 302 300 299 297 298 299 300 300 301 301 302 302 303 303 303 302 301 301 301 300 300 299 298 298 299 299 298 298 298 297 297 297 297 298 298 298 299 299 299 299 299 299 298
330 328 327 326 324 323 322 322 321 320 319 318 317 316 315 314 314 314 313 313 313 312 312 311 311 311 310 309 309 308 308 308 307 307 307 306 306 306 305 304 303 302 301 298 296 297 298 299 300 300 300 301 301 301 302 303 302 302 301 301 301 301 300 299 298 298 298 299 298 297 297 297 296 296 296 297 298 298 298 298 299 299 299 299 298
329 327 326 326 324 323 322 321 320 319 318 317 315 315 314 314 313 313 313 313 312 312 311 311 310 310 309 308 308 307 307 307 306 306 306 306 306 306 305 304 303 302 301 298 296 296 297 298 299 300 300 300 300 301 301 302 302 302 301 301 301 301 300 300 299 298 298 298 297 297 297 297 296 296 296 296 297 297 297 298 298 298 298 299 299
328 327 325 325 324 323 321 320 318 318 317 316 315 314 314 313 313 313 312 312 312 311 311 310 310 309 308 308 307 307 306 306 306 306 306 306 306 305 305 305 304 303 302 299 297 296 296 297 299 300 300 300 301 301 301 302 302 302 302 301 301 301 301 300 299 299 298 297 297 296 296 296 296 296 296 296 296 296 296 297 297 298 298 298 298
327 326 325 324 323 321 320 318 317 317 317 316 315 314 313 313 313 312 312 311 311 310 310 309 309 308 308 307 307 306 306 306 306 306 306 306 306 305 305 305 304 303 302 300 298 296 296 296 298 299 300 300 300 301 301 302 302 302 302 302 301 301 301 300 300 299 298 297 296 296 296 296 296 296 296 296 296 296 296 296 297 297 297 298 298
326 325 323 322 321 320 318 318 317 316 316 316 314 313 313 313 312 312 311 310 310 310 309 309 308 308 307 306 306 306 306 306 306 306 306 305 305 305 305 305 304 303 302 300 298 296 295 295 296 298 299 300 300 301 301 302 302 302 302 302 301 301 301 300 300 299 298 297 296 295 295 296 296 296 296 296 296 296 296 296 296 296 297 297 297
325 324 323 321 319 319 318 317 317 316 315 314 313 313 313 312 311 311 310 310 309 309 309 308 308 307 306 306 305 305 305 305 305 305 305 304 304 304 305 305 304 303 302 301 299 298 296 295 295 297 298 299 299 300 301 302 302 302 302 301 301 301 301 300 300 299 299 298 297 296 295 296 296 296 296 296 296 296 296 296 296 296 297 297 297
324 322 321 319 319 318 317 317 316 315 315 314 313 313 312 311 311 310 310 309 309 308 308 307 307 306 306 305 305 305 305 305 304 304 304 304 304 304 304 304 304 304 303 302 301 300 297 295 295 296 296 297 298 300 301 301 302 302 302 301 301 301 301 301 299 299 299 298 297 296 296 296 296 296 296 296 296 296 296 296 296 296 297 296 297
322 320 319 319 318 318 317 317 316 314 314 313 313 312 311 310 310 309 309 309 308 307 307 306 306 306 305 305 305 305 305 304 304 304 304 303 303 303 303 303 304 304 303 302 302 301 298 296 295 295 295 296 296 298 300 301 301 302 302 301 300 300 300 300 299 298 297 297 296 296 296 296 296 296 297 297 296 296 296 296 296 296 296 296 297
320 319 318 318 318 317 317 316 315 314 313 313 312 311 310 310 309 309 308 308 307 306 306 306 305 305 305 305 305 305 304 304 304 304 303 303 303 303 303 302 302 302 302 302 301 300 298 296 295 295 295 295 295 296 297 298 300 301 301 301 300 300 300 300 298 298 297 297 297 297 297 297 296 296 297 297 296 296 296 295 296 296 296 296 296
319 318 317 317 317 317 316 315 314 313 312 311 310 310 309 309 308 308 307 306 306 306 305 305 305 305 305 305 305 304 304 304 304 303 303 303 303 303 302 301 299 298 298 298 298 297 297 297 296 295 295 295 295 295 295 296 297 299 300 300 300 300 300 299 299 299 298 297 297 297 297 297 296 296 296 296 296 296 295 295 295 295 295 295 296
318 317 317 317 317 316 315 314 313 311 310 310 310 309 308 308 307 307 306 306 306 305 305 305 305 305 305 305 304 304 304 304 304 304 303 303 303 303 303 302 300 299 299 299 298 298 299 299 299 298 296 295 295 295 295 295 296 296 297 298 299 299 299 299 299 298 298 297 297 297 297 297 296 296 296 296 295 296 295 294 295 295 295 295 296
318 317 317 317 316 315 314 313 312 310 309 309 309 308 307 307 306 306 306 306 305 305 305 305 304 304 304 304 304 304 304 304 304 303 303 303 303 303 303 303 302 302 302 301 301 301 301 300 300 300 299 297 296 295 296 296 296 295 296 296 297 298 298 298 298 297 297 297 297 297 297 296 296 295 296 296 295 295 295 294 294 294 294 295 295
317 317 317 316 315 314 313 312 311 310 309 308 308 307 306 306 305 305 305 305 305 304 304 304 304 303 304 304 304 303 303 303 303 303 303 303 303 303 303 303 303 302 302 302 302 302 302 301 300 300 299 299 297 296 296 296 296 296 295 296 296 297 297 297 297 297 297 297 297 297 297 296 295 295 296 295 294 294 295 293 293 293 294 294 295
316 317 316 315 314 313 312 311 310 309 308 307 307 306 306 305 304 304 304 304 304 304 304 303 303 303 303 303 303 303 303 303 303 303 303 303 303 303 303 302 302 302 302 302 302 302 302 301 301 300 299 298 298 297 296 296 296 296 295 295 296 296 296 296 296 296 296 297 297 296 296 296 295 294 295 295 293 293 294 293 292 293 293 293 294
316 316 315 314 313 312 312 311 309 308 308 307 306 305 305 304 303 303 304 304 303 303 303 303 302 303 303 303 303 303 303 303 303 303 303 304 304 303 302 302 303 303 303 303 303 303 303 302 301 300 299 298 298 297 296 295 296 296 295 295 296 296 296 296 296 296 296 297 297 296 296 296 295 294 294 295 294 293 293 293 292 292 292 293 293
315 315 314 313 313 312 311 310 309 308 307 306 305 305 304 303 303 303 303 303 303 302 303 303 303 303 303 303 302 302 303 303 303 303 303 303 303 302 301 302 303 303 303 303 303 302 302 301 301 300 299 298 297 296 294 295 295 295 294 294 295 296 296 296 296 296 296 296 296 296 296 296 295 294 294 294 294 293 292 292 292 291 291 292 292
314 314 313 313 312 311 310 309 308 307 306 305 305 304 303 302 302 303 303 302 302 302 303 303 303 303 302 302 303 303 303 303 302 302 302 302 302 302 302 303 303 303 303 303 303 302 301 300 299 299 298 298 296 293 293 294 294 294 294 294 295 295 295 295 296 296 296 296 296 296 296 295 295 294 294 294 294 293 292 292 292 291 291 291 292
314 313 312 312 311 310 308 307 306 305 305 304 304 304 303 302 302 302 302 302 302 303 303 302 302 302 302 303 303 302 302 302 302 302 302 302 302 303 303 303 303 303 303 302 301 301 300 300 299 298 298 297 295 292 292 293 293 293 294 295 295 295 295 295 296 296 296 296 296 296 296 295 295 295 294 294 294 294 292 291 292 291 290 290 291
313 312 311 310 309 308 307 305 305 304 304 304 303 303 303 302 302 301 302 302 303 302 302 302 301 302 302 302 302 302 302 302 302 302 302 302 302 302 301 301 301 301 301 300 300 300 300 300 299 297 297 297 294 292 292 293 293 293 294 295 295 295 296 296 296 296 296 296 296 296 296 295 295 295 294 294 294 294 292 291 291 291 290 290 290
312 311 310 309 308 306 305 305 304 304 303 303 302 302 302 301 301 302 303 303 302 302 301 301 301 301 301 302 302 302 302 302 302 302 302 302 302 301 301 301 301 300 300 299 299 299 299 299 298 297 297 296 293 291 292 293 293 294 294 295 295 296 296 296 296 296 296 296 296 296 296 295 295 295 294 294 294 294 293 291 291 291 291 290 290
311 310 309 308 307 305 305 304 304 303 303 303 302 302 301 302 302 303 303 302 301 301 301 301 301 301 301 301 301 301 301 301 301 301 302 301 301 301 301 301 301 301 300 300 299 299 298 298 298 298 296 294 291 291 291 292 293 294 294 295 295 295 296 296 296 296 296 296 296 296 296 295 295 295 294 294 294 294 293 292 291 291 291 290 290
310 309 307 306 305 305 304 304 304 303 303 302 302 302 302 302 302 303 302 302 301 300 300 300 301 301 301 301 301 301 300 300 300 301 301 300 299 299 299 299 300 301 300 300 299 298 297 296 295 295 293 291 291 291 291 291 293 294 295 295 295 296 296 296 296 296 297 296 296 295 296 295 295 295 294 294 294 294 293 292 292 291 291 291 290
Wind_Speed
10 13 16 21 25 27 28 28 26 24 23 26 28 28 29 29 27 23 22 21 22 21 18 18 18 17 16 15 13 11 10 11 11 11 12 10 9 11 13 15 13 9 9 8 8 8 9 9 9 9 8 8 9 9 11 12 12 12 12 13 14 14 14 13 14 15 13 14 17 18 16 14 12 9 6 7 11 14 15 15 15 16 17 17 18
10 12 14 18 21 23 26 27 25 24 24 26 27 27 28 29 27 24 23 23 23 22 20 18 17 18 18 16 16 14 12 13 14 13 13 13 13 15 17 17 15 12 11 9 9 9 9 9 10 9 8 8 9 9 10 12 13 14 14 15 14 14 14 14 18 16 12 13 13 12 13 15 13 4 6 15 17 14 13 13 15 16 16 16 16
10 11 14 18 21 23 25 26 25 25 25 24 24 25 27 27 26 25 24 23 23 22 21 20 17 15 16 16 16 15 15 15 17 17 16 16 17 17 17 16 13 12 11 9 9 9 8 9 9 9 9 9 9 9 10 11 13 14 15 17 17 16 14 15 20 19 16 16 11 5 5 9 8 4 13 25 17 11 12 13 15 17 17 16 15
11 9 10 16 21 22 24 24 25 25 23 23 23 24 26 26 26 26 25 23 22 21 21 20 18 15 16 16 15 16 17 17 19 18 18 18 16 14 13 12 11 11 11 9 9 8 8 8 8 9 10 10 10 11 12 13 14 15 15 17 18 18 16 15 18 19 19 17 9 4 3 4 3 5 18 21 12 13 15 13 15 18 17 17 16
11 10 8 11 15 19 22 24 24 24 22 22 22 22 24 24 24 26 26 22 20 21 21 21 20 19 18 17 17 18 19 19 19 18 17 17 14 12 11 10 9 10 10 9 8 8 8 7 7 8 9 10 11 11 13 13 14 15 15 16 17 18 16 15 17 17 18 19 13 6 4 2 2 8 13 11 12 17 14 13 16 18 18 18 17
9 10 9 8 10 15 20 23 23 23 22 22 22 22 22 23 23 24 23 20 19 21 23 23 23 22 21 21 20 20 19 17 18 19 18 16 14 12 11 9 9 9 9 8 8 8 8 7 7 7 8 10 10 11 12 13 13 14 15 16 16 16 16 17 19 18 15 18 19 13 9 7 6 10 8 6 12 13 10 15 17 19 23 21 19
10 10 10 9 10 13 16 19 22 23 23 24 23 21 21 22 22 22 21 20 21 22 23 24 25 24 24 23 22 21 19 17 17 18 18 16 14 12 11 9 8 8 8 7 8 8 8 7 6 6 7 9 10 11 13 14 14 14 14 15 15 15 17 18 20 20 17 17 19 17 14 14 13 11 6 5 9 8 12 18 17 21 26 22 21
11 11 10 10 10 11 14 17 20 23 24 25 24 21 20 23 22 19 19 21 22 22 22 24 25 25 24 23 22 22 22 21 20 19 17 16 16 14 13 11 8 6 5 5 6 7 8 8 8 6 7 9 10 11 13 13 14 14 13 14 14 16 18 19 20 21 20 19 20 19 18 18 17 14 13 11 6 5 12 17 19 27 25 19 21
13 12 11 11 11 13 15 17 20 22 24 25 23 21 21 22 21 18 18 21 21 22 23 23 23 23 24 25 25 24 23 23 22 20 19 18 18 15 13 12 9 6 5 5 6 7 8 10 10 8 8 9 10 11 12 13 15 16 15 15 15 15 17 18 20 21 21 20 21 20 19 19 17 15 18 18 9 5 7 9 18 26 24 22 25
13 13 12 14 17 18 18 19 20 21 22 22 22 21 21 20 20 19 19 20 19 19 20 20 21 22 24 26 26 25 24 24 23 22 21 19 18 15 12 10 9 8 7 7 8 9 9 9 10 9 9 9 11 13 13 15 17 16 15 16 16 17 18 19 20 21 21 21 22 21 20 19 16 13 16 18 12 7 6 6 13 17 18 24 28
13 13 13 16 21 21 20 20 21 20 20 21 22 22 21 19 20 21 20 19 18 17 18 19 20 21 23 25 26 25 25 25 24 22 20 17 16 13 11 11 11 11 10 9 10 10 9 8 9 10 12 13 14 15 15 16 17 16 16 17 18 19 19 19 20 20 20 20 21 20 19 18 16 13 15 17 13 9 8 7 11 15 15 20 26
13 13 13 15 17 18 20 20 20 22 21 22 23 22 21 20 22 22 20 18 18 17 19 21 22 23 23 24 24 24 24 23 23 21 19 17 15 14 13 14 13 12 12 11 10 9 9 9 11 13 15 16 15 15 16 16 16 16 16 17 19 19 18 18 19 20 19 19 19 18 18 18 17 16 17 18 17 15 13 8 11 17 15 17 25
12 12 12 12 13 15 18 19 21 22 22 23 24 23 22 23 23 22 19 18 20 21 22 23 24 24 24 24 24 23 22 22 21 20 18 17 16 16 16 14 12 11 12 12 11 10 11 13 14 14 15 15 15 16 16 16 16 16 17 18 19 19 18 17 17 18 19 19 19 19 20 20 20 19 19 20 20 19 16 11 13 16 13 16 23
11 12 12 11 12 16 18 19 20 21 23 25 25 24 24 24 24 23 22 21 23 23 22 22 22 23 23 23 23 23 23 22 20 19 18 17 16 16 15 13 12 11 10 9 10 11 12 14 15 15 15 16 15 16 16 16 17 17 18 19 20 20 18 17 17 18 20 21 20 21 22 22 22 21 21 22 22 19 17 14 14 14 13 15 19
11 12 12 12 15 18 18 19 20 22 25 26 24 25 26 25 25 26 24 23 22 22 21 21 21 21 21 22 22 22 22 22 21 19 17 16 13 12 10 10 11 11 9 9 11 12 13 14 15 15 15 16 16 15 15 15 17 18 19 19 20 19 18 19 19 20 22 23 23 22 23 24 24 23 22 23 22 20 19 19 16 12 11 11 12
12 12 12 13 17 20 19 19 21 24 25 24 24 27 28 27 26 26 24 23 22 22 22 22 21 21 20 20 21 21 21 21 21 18 16 14 11 10 10 10 11 11 11 12 13 12 13 14 14 14 14 16 16 16 17 18 18 20 20 19 19 18 18 19 20 21 21 22 23 23 24 24 23 22 22 21 21 21 21 22 19 14 10 8 8
13 12 13 14 17 20 20 21 23 24 24 23 25 28 28 27 27 26 24 23 22 23 23 23 22 21 20 19 19 19 19 19 19 18 16 13 12 12 12 12 12 12 12 13 13 13 13 14 14 14 14 16 17 17 18 19 19 20 20 19 18 18 19 21 22 22 21 22 23 23 23 23 21 20 19 18 19 21 21 20 19 16 13 9 7
13 13 13 14 17 20 21 22 24 24 24 24 26 27 27 27 27 26 24 23 22 22 22 22 22 21 21 20 18 17 16 17 17 17 16 14 14 14 14 14 13 13 13 13 13 13 14 14 15 15 14 16 17 17 17 18 18 19 20 20 20 20 22 24 24 24 22 22 24 24 23 22 21 20 19 18 18 19 20 19 17 16 15 11 9
13 13 12 12 16 20 23 23 25 25 25 26 26 26 26 26 25 25 24 23 22 21 20 20 20 20 21 20 18 17 17 18 19 19 18 17 17 16 16 15 15 14 14 15 15 15 15 15 15 15 15 15 16 17 18 18 18 19 20 21 21 20 23 24 24 24 22 22 24 24 23 23 21 20 20 18 18 19 19 19 18 17 16 14 14
12 13 12 12 16 22 25 25 26 27 26 26 26 26 26 25 24 24 23 22 22 21 20 20 20 21 21 20 19 19 21 21 21 20 19 18 17 17 17 17 16 16 15 15 16 16 15 15 15 15 15 16 18 19 19 19 19 20 21 22 22 21 22 24 23 23 22 22 23 23 23 23 21 21 21 20 19 21 20 19 18 18 16 15 17
12 13 13 14 17 23 26 26 27 28 26 26 27 27 26 25 24 23 22 22 22 21 21 21 21 21 21 21 21 22 23 23 22 20 20 19 18 18 18 17 17 18 17 17 17 16 15 13 13 14 16 18 19 20 20 20 20 21 22 23 22 22 23 23 23 23 23 22 22 23 23 23 22 22 22 21 21 22 22 20 19 17 17 17 18
13 13 13 14 17 22 25 26 27 27 25 26 27 27 26 25 24 23 21 21 20 20 21 21 21 22 21 21 22 22 22 21 21 21 21 20 19 19 18 18 19 18 18 18 18 16 14 13 13 15 18 19 19 19 20 21 20 21 22 23 22 23 24 24 24 24 23 22 22 23 23 23 23 23 23 23 23 23 23 21 19 17 17 19 21
14 14 13 15 18 22 25 26 26 25 25 26 27 26 25 25 24 22 21 20 20 20 22 23 24 23 22 22 22 22 21 20 20 21 21 20 20 19 19 20 20 19 17 17 16 15 14 13 15 17 18 19 18 18 20 21 22 22 22 22 23 23 24 24 24 24 22 21 22 23 24 24 25 25 25 24 23 24 23 19 19 19 18 20 23
14 13 13 16 20 21 23 23 23 24 26 26 26 25 25 25 23 21 21 21 21 21 23 24 24 23 22 22 22 21 22 21 21 21 22 21 20 20 20 20 20 19 18 16 15 14 14 15 16 17 18 18 17 18 20 22 23 23 22 22 23 23 23 23 23 23 22 22 22 24 26 26 26 27 26 25 24 25 24 21 22 24 23 23 24
15 14 14 16 17 17 19 21 22 24 25 25 25 25 25 24 22 23 24 22 20 22 24 24 22 22 23 22 21 22 22 21 21 22 22 21 21 21 21 20 21 20 19 17 16 16 16 17 19 18 18 17 17 19 21 22 23 23 22 21 21 21 22 23 23 23 23 22 22 24 27 27 28 29 27 27 26 26 25 25 27 28 28 28 27
16 16 15 15 15 15 18 21 22 23 24 25 25 24 24 25 25 26 24 22 21 23 24 23 23 24 24 23 22 22 22 22 23 23 22 21 21 21 20 20 19 19 18 17 17 18 17 19 21 20 19 18 18 20 21 21 22 22 22 20 20 20 21 22 23 23 23 22 22 24 27 28 29 30 28 28 28 27 26 27 27 27 28 29 30
16 15 14 14 14 15 18 21 23 23 24 25 24 23 25 27 27 26 24 23 23 24 25 25 24 25 24 23 23 23 23 24 23 23 23 22 22 21 21 20 19 19 18 17 17 17 18 20 21 21 20 20 20 20 20 21 21 21 21 20 19 20 21 22 23 22 22 21 21 23 26 28 29 29 29 28 28 28 27 27 26 26 26 27 28
15 15 14 14 13 14 17 21 22 23 23 24 23 24 27 29 27 25 24 24 24 24 25 24 24 25 24 23 24 24 24 24 23 24 24 23 23 22 21 21 20 19 19 16 16 17 18 19 19 20 20 20 20 20 19 20 20 20 20 19 18 19 20 23 25 23 21 20 21 22 23 26 28 29 29 28 28 26 26 25 25 24 25 26 26
16 16 14 15 14 13 15 20 21 22 23 23 23 25 27 27 27 26 25 26 25 25 24 24 24 25 24 23 24 24 24 23 23 24 24 24 24 23 22 22 21 20 18 16 16 16 18 18 18 18 18 19 19 19 19 19 18 18 18 17 16 16 18 22 26 25 20 18 20 21 22 25 28 29 29 28 27 25 24 23 23 23 24 25 26
17 16 14 14 14 15 18 20 20 22 24 23 23 26 28 28 28 27 27 28 27 25 24 25 25 25 24 24 25 25 24 23 23 24 24 23 23 23 23 23 21 19 17 17 17 18 18 17 17 17 16 16 17 17 17 17 16 16 16 15 14 14 16 19 25 26 21 18 19 21 22 24 26 28 29 29 27 26 24 23 23 22 22 23 24
16 16 15 14 14 15 19 21 21 24 26 25 26 28 28 28 28 27 27 28 27 26 26 26 26 25 25 25 25 26 26 25 25 24 24 24 23 22 23 22 21 19 17 17 19 20 18 17 16 15 15 14 15 15 15 14 14 14 14 14 13 13 14 17 23 25 23 21 20 21 23 23 24 26 29 30 29 29 28 26 24 24 23 23 24
15 15 16 16 15 15 17 21 25 28 28 26 28 30 28 28 28 26 27 28 27 27 27 26 26 25 26 26 26 27 26 25 25 25 24 24 23 23 22 22 21 20 18 17 19 20 19 17 15 14 14 14 13 14 13 13 12 12 12 14 15 13 12 15 20 22 22 22 22 21 23 24 24 25 28 30 30 31 31 30 28 27 25 24 24
16 16 17 17 17 18 20 25 28 30 29 26 26 28 28 28 28 26 27 29 28 28 27 26 26 26 26 27 27 27 26 25 25 24 24 24 24 23 23 22 21 20 19 18 17 18 19 18 16 14 13 13 12 12 12 11 10 10 11 13 15 13 12 14 17 19 20 22 23 23 24 25 25 26 27 29 30 31 32 32 31 30 28 27 26
15 17 17 16 18 21 24 29 31 30 30 28 27 28 28 28 28 27 29 30 29 28 27 26 26 27 27 28 27 27 27 26 26 25 25 24 24 23 23 22 21 20 18 17 17 17 19 19 18 16 13 12 11 10 9 9 10 11 13 14 14 13 13 13 15 16 18 21 23 23 25 26 26 28 29 29 31 32 33 33 33 31 30 29 29
16 16 15 16 21 25 26 27 28 29 30 30 30 31 30 27 27 28 30 30 29 28 27 27 28 28 28 28 28 28 28 27 27 26 25 25 24 23 23 22 21 20 18 17 16 17 18 19 19 18 16 14 12 9 9 10 12 13 16 16 15 13 12 12 14 15 16 19 21 23 25 26 27 28 29 29 30 33 33 33 33 32 30 31 31
16 16 16 19 26 31 32 29 27 29 32 30 30 32 31 28 28 28 28 29 29 28 28 28 28 28 28 29 29 29 29 28 28 27 26 25 24 24 23 22 21 20 19 18 16 14 16 18 20 19 18 17 14 11 10 12 13 14 15 16 16 15 12 11 13 16 16 17 19 21 24 26 28 29 28 28 30 32 32 32 33 31 31 32 33
18 21 24 27 30 32 32 31 31 32 31 30 30 32 32 32 31 29 26 26 27 27 28 28 28 28 29 30 29 29 29 29 28 27 26 25 24 23 22 21 21 20 19 18 17 14 13 16 18 19 20 20 18 14 10 10 10 11 13 14 15 15 14 12 13 16 16 17 18 21 24 25 28 29 28 28 30 31 32 32 32 31 30 32 33
22 24 25 28 30 30 29 31 32 31 29 30 33 34 34 32 30 28 26 23 23 26 27 28 28 29 30 29 29 29 29 28 27 26 25 24 23 23 21 20 20 19 17 16 15 14 13 14 17 18 19 20 20 18 14 12 11 10 12 13 13 14 14 13 13 14 15 17 19 22 24 24 26 29 27 27 29 31 31 32 32 30 30 31 34
28 28 26 26 28 29 28 29 30 27 29 34 37 36 34 30 28 29 29 25 23 25 27 28 28 29 30 29 29 29 28 28 27 25 25 24 23 23 21 19 19 20 19 18 17 17 16 16 16 17 17 18 19 20 18 17 15 13 12 12 11 12 13 14 14 13 14 16 19 21 23 24 25 27 26 26 28 29 31 32 31 30 30 32 33
27 30 31 30 29 29 28 28 27 28 32 36 36 34 31 27 27 29 31 30 26 25 27 29 29 29 29 29 29 29 28 28 26 25 24 23 23 22 20 19 19 19 18 17 16 16 15 14 14 15 15 14 15 17 18 18 17 15 13 12 11 12 13 14 15 14 13 15 18 21 23 23 24 25 25 26 28 28 29 31 31 30 31 31 32
28 30 31 30 29 29 29 28 28 31 34 34 34 31 28 27 27 27 29 30 28 27 28 30 29 29 29 28 28 29 28 27 25 24 24 23 22 22 21 20 19 17 15 14 12 11 11 11 11 12 13 13 12 13 15 17 16 15 13 12 12 12 12 12 13 13 14 16 19 21 22 22 23 25 24 25 28 28 28 29 30 30 30 30 30
30 30 30 28 27 27 27 27 29 31 32 33 33 30 27 27 27 26 28 31 31 30 31 30 29 29 29 28 28 28 28 26 25 25 25 23 21 21 21 21 19 17 15 14 12 10 10 10 10 10 11 12 11 10 11 14 14 14 12 11 12 12 11 12 13 14 15 16 18 19 20 21 23 24 22 24 27 27 26 29 29 28 29 29 30
28 29 29 29 27 26 27 28 29 30 31 32 32 29 27 27 26 27 31 33 32 32 31 30 30 29 28 28 28 28 27 26 25 24 23 21 20 21 21 20 18 16 16 15 13 12 12 12 11 10 10 10 9 8 8 9 11 11 11 10 10 11 11 12 13 14 15 15 16 18 19 20 22 23 21 23 27 27 26 27 28 28 29 30 31
27 28 30 30 29 28 29 29 30 31 31 32 30 28 28 28 29 31 34 33 32 32 31 30 30 29 28 28 28 27 26 25 25 24 23 21 21 21 20 18 16 16 16 15 14 14 14 14 13 11 10 9 7 6 4 5 6 7 9 9 9 10 10 11 12 12 13 14 15 16 17 18 20 22 22 22 25 28 27 26 28 29 30 31 32
27 29 30 30 30 30 29 29 30 32 31 30 30 31 31 30 31 33 34 33 32 32 31 30 29 29 29 29 27 27 26 25 24 24 22 21 21 21 21 20 18 17 16 15 14 14 15 15 15 14 12 8 4 4 2 4 5 5 8 10 10 10 10 11 11 11 12 13 14 14 16 17 19 20 22 23 25 27 27 26 27 29 30 31 32
28 29 30 30 29 29 29 28 29 30 30 30 31 34 33 32 33 33 34 34 33 32 31 30 30 30 29 28 28 27 26 24 23 23 22 22 22 21 21 20 19 17 16 15 15 15 15 16 16 15 12 7 2 3 4 6 6 7 9 11 11 11 11 11 11 11 10 12 13 14 15 17 18 19 22 23 24 26 27 26 27 30 31 32 32
29 29 30 29 28 27 27 27 27 28 30 31 32 33 34 34 34 34 34 33 32 32 31 31 31 30 29 29 29 28 26 25 23 22 21 20 19 18 18 18 17 16 15 15 16 16 15 16 16 15 11 6 4 4 6 7 8 9 10 11 11 11 11 11 11 11 12 13 14 14 14 16 17 18 21 23 23 25 27 27 27 29 31 32 32
30 31 30 29 28 27 27 26 26 28 30 31 31 32 34 35 35 34 34 33 33 33 32 31 30 30 30 30 30 29 27 25 23 21 19 18 17 17 17 16 15 14 15 17 17 16 15 15 16 15 10 6 4 4 6 7 8 9 10 11 11 10 10 10 11 12 13 14 14 13 14 15 17 19 21 23 24 25 27 27 27 28 30 32 31
30 31 30 29 28 28 28 28 27 29 30 30 30 32 35 36 36 34 34 35 34 33 31 30 30 31 31 31 30 27 26 24 22 21 19 18 17 17 16 16 14 13 13 14 15 14 14 13 14 13 8 5 4 4 6 8 9 10 10 10 10 9 9 10 11 11 11 13 14 14 14 16 18 20 21 23 24 25 26 27 27 27 29 31 31
29 29 29 30 29 30 30 29 28 30 31 31 31 34 36 36 35 35 36 37 35 32 31 30 31 32 32 30 27 25 24 23 23 24 23 20 18 16 16 16 14 13 12 11 11 11 11 10 11 10 6 4 4 5 6 7 8 9 9 9 8 7 7 9 10 10 10 11 13 15 15 16 18 20 20 22 23 24 25 27 27 27 28 29 30
29 28 28 29 29 30 31 30 29 31 32 32 33 35 35 35 35 37 38 37 35 33 31 31 32 33 32 28 26 26 26 25 24 24 22 21 20 17 15 14 14 12 11 9 9 10 10 9 9 9 7 6 5 5 5 6 7 7 7 6 5 4 5 6 7 9 9 9 10 13 15 15 17 18 19 20 21 22 23 25 26 27 28 28 28
Wind_Direction
143 144 142 140 142 145 145 142 145 149 153 155 156 157 160 164 164 154 151 158 161 158 156 148 139 144 148 143 141 141 137 136 132 133 134 129 118 112 102 89 82 79 82 84 81 76 68 59 51 43 40 41 39 33 29 25 25 23 18 17 15 10 7 5 356 343 337 338 335 332 331 337 335 324 338 342 323 318 315 310 308 306 300 294 292
141 141 138 138 141 142 140 138 142 146 153 159 158 158 160 164 162 152 154 161 160 157 156 155 154 157 151 143 143 141 137 134 126 120 116 107 102 104 99 94 95 95 91 89 83 75 68 61 54 50 48 47 45 39 36 35 32 30 27 24 21 16 10 11 10 2 347 338 333 328 333 345 352 19 24 351 334 326 320 315 316 314 309 302 294
148 142 141 144 145 144 140 138 142 147 153 158 157 156 158 161 161 156 159 162 158 156 158 159 163 161 149 143 145 140 135 130 119 111 103 95 95 100 100 101 104 94 83 79 75 71 66 61 57 56 54 50 49 42 35 34 31 29 29 26 21 16 13 17 19 16 4 348 334 328 333 340 355 28 342 338 345 354 339 326 323 319 315 312 301
145 137 141 149 148 146 143 140 141 146 151 156 155 156 158 162 163 162 164 163 157 156 156 156 158 152 140 140 142 134 130 126 118 107 99 98 99 101 96 91 91 82 75 73 67 64 64 63 61 62 59 51 49 44 36 32 30 26 26 25 22 17 12 14 16 20 23 16 356 319 304 322 355 345 329 333 354 355 344 341 336 329 318 311 306
139 133 136 149 149 145 142 139 139 144 151 156 156 157 160 164 166 165 166 162 155 154 153 150 150 146 139 138 138 129 124 126 122 112 107 107 101 92 84 77 79 77 74 70 61 59 59 58 62 66 62 51 45 44 39 34 31 29 27 25 25 21 15 14 12 17 30 30 22 0 324 329 344 332 325 326 339 341 349 357 351 348 336 319 310
127 132 140 147 145 140 138 136 138 143 151 157 157 159 163 167 168 166 164 160 153 152 152 151 149 150 147 142 137 129 122 121 121 117 113 110 101 94 89 85 85 85 84 76 64 61 54 47 54 61 58 50 43 40 38 33 29 31 31 28 27 24 22 23 17 14 22 24 23 22 9 360 341 333 329 319 333 341 357 357 355 356 350 340 327
127 134 141 146 144 140 137 135 141 147 152 158 159 159 165 169 169 166 162 157 155 154 156 155 152 153 152 146 141 135 124 116 118 120 116 112 108 102 97 94 91 91 91 80 66 60 55 45 43 50 49 43 39 37 36 33 32 33 32 34 35 30 30 31 23 17 18 17 18 20 15 13 7 359 0 338 332 337 343 345 348 345 344 346 345
137 138 141 147 144 139 139 141 148 153 153 157 160 159 162 165 167 168 162 156 156 157 157 156 154 153 150 142 138 134 124 118 121 122 118 116 111 104 98 93 91 92 88 77 63 56 56 44 33 40 43 39 40 42 42 40 41 40 35 36 38 35 36 35 30 27 23 17 17 19 17 17 18 18 16 4 339 316 330 336 338 337 338 340 343
140 139 141 145 142 141 145 148 153 155 153 153 156 157 158 161 166 169 164 158 156 155 155 155 153 152 149 139 130 127 123 123 126 123 120 117 110 105 99 90 85 83 75 67 56 51 58 49 40 48 50 50 49 45 49 49 44 41 36 32 31 34 39 38 35 33 28 23 21 19 15 14 17 20 15 7 354 329 331 333 335 337 337 334 336
144 144 146 147 148 150 150 149 151 153 151 147 149 155 156 160 166 165 161 159 156 153 154 153 150 148 146 137 128 127 129 128 126 123 120 116 108 103 97 91 83 70 65 72 68 63 64 60 55 54 52 58 55 47 55 55 45 41 37 34 37 40 41 40 39 36 32 30 26 21 16 12 11 14 12 7 1 350 340 330 334 339 332 327 331
148 147 145 144 146 148 147 146 147 149 147 144 148 155 156 159 162 157 154 153 148 144 141 139 139 138 136 133 129 131 133 129 123 120 117 109 100 97 95 95 89 77 72 76 76 69 63 65 63 56 57 62 57 52 58 57 51 46 42 44 50 50 44 42 42 39 35 34 31 28 22 15 11 11 8 5 2 353 341 332 332 333 323 318 326
147 144 140 140 141 141 142 144 145 145 145 145 150 155 154 152 150 146 144 143 140 136 130 128 130 130 130 130 129 130 129 124 118 114 109 102 98 101 104 102 97 88 78 72 70 64 58 64 64 59 60 60 57 56 58 57 55 48 45 51 54 51 45 43 43 41 37 36 34 31 24 19 18 17 16 13 7 356 345 335 333 333 325 320 328
145 143 141 142 140 142 146 146 146 147 146 145 148 149 145 142 139 137 136 135 134 132 128 126 126 128 130 129 127 126 123 119 115 112 108 107 109 112 109 104 96 87 81 77 73 65 59 63 65 61 61 60 59 61 60 59 57 50 51 56 53 49 47 45 43 40 38 35 32 32 30 30 28 25 25 22 14 4 355 346 340 340 333 325 330
145 143 143 141 141 146 149 147 147 146 144 144 145 143 139 137 134 131 130 131 131 129 128 126 125 127 130 129 127 125 121 117 116 116 115 114 114 113 106 98 91 87 86 87 83 73 63 63 65 63 64 63 60 63 64 63 58 54 56 58 53 51 50 47 45 40 39 38 37 41 40 36 31 28 27 24 19 12 7 359 347 341 336 329 328
142 142 142 140 144 147 145 143 144 143 143 144 142 139 136 134 132 130 130 132 133 132 131 128 126 128 130 131 131 128 124 122 119 120 122 120 118 115 104 93 93 92 89 93 91 79 68 66 66 64 66 66 61 62 65 62 57 57 62 61 56 52 48 45 46 44 42 42 41 41 38 33 29 26 26 25 21 17 11 5 358 347 337 333 328
144 143 141 143 146 144 140 140 141 142 144 143 139 136 135 133 133 133 133 135 136 135 133 131 130 130 131 132 132 130 128 125 121 118 119 123 127 123 113 107 106 99 88 88 88 80 73 72 69 68 72 70 64 63 64 61 60 62 62 59 56 52 46 45 45 42 40 41 41 37 33 30 27 24 23 21 17 14 11 7 3 357 341 332 331
146 144 143 145 144 141 140 141 142 144 144 141 138 137 137 136 136 135 134 134 135 133 132 132 131 130 131 132 133 133 133 130 127 123 121 125 129 125 120 116 111 102 93 88 87 84 80 77 73 73 78 75 69 66 65 63 61 61 56 51 54 54 51 52 49 45 42 42 42 39 35 31 26 23 21 19 15 10 7 5 2 358 348 336 328
145 142 142 141 140 140 142 142 143 145 142 139 138 139 138 137 137 135 134 134 136 135 133 132 130 127 126 126 126 128 129 130 132 129 126 128 128 126 123 117 110 104 100 95 91 88 84 80 76 76 81 82 77 73 71 66 61 60 56 54 59 59 57 55 51 48 46 44 43 39 34 30 27 24 21 18 15 10 6 4 359 355 349 340 329
144 143 142 141 140 142 142 142 142 141 139 138 138 137 136 135 134 133 133 134 135 134 132 131 130 127 124 122 121 123 124 125 127 129 130 130 129 128 124 118 112 106 103 99 93 87 84 82 79 79 83 85 83 79 75 70 65 62 61 60 61 58 55 52 48 46 44 42 40 35 31 29 26 24 21 18 14 10 5 1 357 353 349 343 334
147 146 145 143 142 142 142 143 141 139 139 138 136 135 134 132 131 131 130 131 132 131 131 131 131 128 127 125 126 131 130 128 129 132 133 131 128 125 121 115 111 106 103 98 91 86 85 84 82 83 86 89 87 80 74 72 69 66 64 62 60 57 54 52 49 45 44 42 40 35 31 27 24 22 19 16 12 8 4 1 357 354 351 349 341
148 147 146 144 143 142 142 141 139 138 139 137 135 134 134 133 132 131 130 132 134 133 132 132 132 131 131 129 128 131 131 129 131 132 131 128 124 122 118 114 110 105 101 96 90 86 84 82 83 87 92 95 89 80 74 73 70 68 67 64 61 59 58 56 52 48 46 44 40 36 30 25 23 20 15 12 9 5 3 360 359 356 354 355 348
147 147 145 144 143 142 140 138 139 139 138 136 135 135 136 135 135 134 135 137 138 136 135 136 136 135 132 129 128 130 131 131 129 128 127 125 123 121 117 113 108 104 100 96 91 87 82 79 82 91 100 100 91 83 81 78 72 70 69 66 64 63 62 58 53 49 47 44 38 33 29 24 21 16 12 11 8 4 2 360 1 2 356 353 349
144 145 143 141 141 141 139 138 140 139 137 136 135 136 136 135 135 137 138 139 138 137 138 137 134 132 130 129 128 129 132 131 128 127 126 124 121 118 115 110 105 102 100 96 92 88 82 78 82 95 106 104 93 86 85 82 77 73 71 69 66 64 61 57 52 49 46 43 38 32 28 23 18 14 12 10 8 6 7 5 4 2 351 342 341
141 142 141 139 139 140 139 139 139 137 136 136 136 136 135 135 139 139 138 138 135 134 136 133 129 128 129 129 128 129 131 131 130 130 127 124 121 117 112 108 103 99 95 91 87 84 83 80 83 95 107 105 95 89 87 85 81 77 74 72 68 62 58 55 52 48 45 43 40 34 28 23 19 17 14 13 15 16 16 14 7 0 352 342 337
140 141 140 139 140 142 141 139 138 137 137 137 137 138 139 142 143 138 139 142 137 133 134 134 131 129 128 129 130 131 132 131 130 129 126 124 122 119 115 110 105 99 92 85 78 75 81 84 84 92 103 102 95 92 91 88 84 82 78 72 68 62 55 54 52 48 45 45 42 33 28 26 23 21 20 20 21 21 18 13 8 3 357 352 347
143 143 142 142 141 142 140 139 139 138 137 138 141 145 144 143 140 137 141 146 140 137 139 139 137 134 132 133 133 133 132 130 127 125 124 123 120 118 115 110 105 98 91 83 75 72 80 87 88 91 97 98 96 95 93 90 87 85 81 76 71 64 57 54 51 47 45 44 40 34 30 30 28 25 24 23 21 18 14 10 8 5 1 357 355
144 142 141 142 141 141 140 139 140 139 140 144 148 147 141 138 138 141 145 145 142 141 141 140 138 135 134 135 134 134 131 128 127 125 123 121 118 116 112 108 104 98 92 85 75 73 82 91 92 91 93 95 95 95 93 91 90 87 83 79 74 67 61 56 51 48 46 42 39 37 33 31 29 27 25 24 21 18 15 14 12 8 5 3 0
142 141 143 142 140 139 137 138 141 141 144 148 147 143 138 137 141 146 148 146 145 143 141 141 138 135 136 136 135 134 132 130 129 128 126 123 120 118 114 111 107 101 96 89 80 79 86 94 95 92 92 94 94 94 93 92 93 90 86 81 74 70 67 59 51 50 49 44 41 40 35 32 31 31 30 30 28 24 20 19 16 12 10 8 5
144 144 145 142 141 139 136 140 143 143 142 141 139 139 139 141 146 149 149 149 149 147 145 144 140 137 138 138 136 135 134 132 130 127 125 122 120 118 115 113 110 104 98 91 85 86 90 96 98 95 95 94 92 90 89 91 94 92 88 84 75 72 72 62 54 52 52 47 43 40 37 34 33 33 35 36 36 33 28 23 18 14 10 9 7
148 146 144 143 143 141 141 145 146 142 139 136 137 141 144 147 152 153 150 152 153 150 146 142 140 140 140 138 135 134 132 130 127 125 123 122 120 119 116 112 109 104 97 90 86 87 92 98 101 99 97 93 88 84 83 89 95 94 91 87 79 78 78 65 54 52 54 53 47 42 37 33 30 27 29 31 31 29 26 22 18 15 11 8 6
149 146 142 142 145 147 149 150 146 143 143 142 143 147 149 151 155 154 152 153 154 149 144 141 141 142 141 138 135 133 131 129 127 127 126 124 123 120 117 112 109 106 98 89 84 83 88 96 102 102 98 92 85 82 85 93 98 98 95 88 85 89 84 65 53 52 53 52 49 42 35 30 25 21 21 22 22 20 17 14 10 8 8 7 5
148 146 144 147 151 154 153 148 143 147 152 150 147 150 152 152 155 156 154 154 151 146 143 143 144 144 142 139 136 134 132 130 129 128 126 125 124 121 118 115 112 109 102 91 82 79 81 89 100 103 97 91 88 87 91 97 101 104 100 91 89 91 82 63 54 53 52 48 44 37 32 28 23 20 17 15 15 15 13 11 7 3 0 360 360
149 151 152 154 154 152 149 146 146 153 159 157 151 150 152 155 157 156 153 151 148 145 146 147 148 147 143 140 138 136 133 132 130 129 128 126 124 122 120 117 113 111 106 96 86 79 77 82 93 99 96 92 91 89 91 94 95 99 101 99 93 82 70 61 55 53 52 47 40 33 29 26 23 20 16 12 12 11 10 11 9 5 360 356 356
153 158 159 156 149 147 149 151 154 157 158 157 154 151 153 157 158 155 151 149 147 148 151 151 150 148 145 143 141 138 136 134 133 132 130 128 125 123 122 120 116 114 108 100 91 82 78 80 85 92 96 93 87 84 84 81 83 88 90 93 91 74 63 61 56 52 50 45 37 31 27 24 22 21 16 12 11 10 9 9 8 6 1 359 358
160 160 160 154 145 144 149 155 157 157 157 155 154 154 156 157 155 151 149 149 150 152 154 153 151 149 148 146 143 140 138 137 135 134 131 128 126 125 125 124 119 114 110 104 94 83 79 80 83 87 91 89 81 81 81 75 81 91 89 86 84 74 66 64 56 50 45 39 31 28 27 24 21 20 16 13 11 10 9 8 6 6 3 1 1
161 156 154 154 150 150 153 157 157 156 157 155 153 155 155 152 148 147 149 152 154 154 154 153 152 151 149 146 143 141 139 137 136 135 133 131 129 127 127 127 123 119 116 112 104 91 83 81 83 85 86 84 80 82 84 80 84 94 92 86 83 77 74 73 60 48 41 34 26 24 26 23 21 19 16 14 13 11 11 9 6 7 6 3 3
155 154 155 157 155 153 153 154 155 156 159 157 153 153 151 147 148 150 153 155 155 153 153 152 150 148 147 146 144 142 139 138 138 137 135 133 130 128 127 129 128 126 123 119 114 107 93 84 82 84 83 81 78 77 82 84 86 93 91 86 81 75 74 78 66 49 38 32 27 25 24 21 19 17 15 14 14 12 12 11 8 8 7 3 4
151 152 155 156 154 151 150 152 153 155 157 154 150 148 147 147 150 150 150 151 152 150 150 149 147 146 147 147 146 144 141 140 140 138 136 134 131 129 129 130 130 130 129 128 126 118 104 89 83 82 82 81 77 74 77 78 81 88 89 85 81 73 69 70 64 49 32 26 25 23 21 18 16 15 14 15 15 13 13 12 9 9 7 3 4
154 153 153 153 151 149 149 151 149 148 149 149 147 146 146 148 150 149 146 147 150 149 149 148 148 148 149 148 147 145 144 142 140 138 137 135 133 133 131 128 125 124 122 122 120 113 104 94 86 81 79 80 79 75 73 73 75 82 83 80 78 70 62 57 52 40 24 20 22 22 20 18 16 15 15 17 17 15 15 15 13 12 9 4 4
155 154 153 153 152 150 149 149 147 144 145 147 147 146 146 146 148 147 145 147 153 153 151 150 150 150 150 148 147 146 145 143 141 141 140 139 137 137 137 133 127 124 122 119 116 112 107 101 92 83 76 76 77 76 74 70 70 73 74 73 71 63 55 50 44 35 22 18 21 21 20 20 19 16 16 19 19 18 18 18 17 15 12 7 6
154 155 154 152 153 153 151 150 148 146 146 147 147 146 146 147 149 148 147 151 156 155 151 149 149 149 148 147 147 146 145 143 142 142 141 140 139 139 141 140 137 135 131 130 130 128 122 115 104 93 83 75 72 74 75 70 66 65 65 67 65 57 51 47 41 35 24 17 16 17 19 22 22 18 17 20 20 19 20 20 19 17 15 12 11
154 155 154 151 150 151 149 147 148 148 148 148 148 148 151 154 153 151 151 152 154 152 149 148 146 145 146 147 147 146 145 144 144 143 141 141 143 145 145 143 143 144 144 147 151 152 148 141 128 110 94 81 69 69 76 74 68 62 60 63 63 59 54 49 41 32 22 15 14 17 21 24 23 19 19 22 22 20 21 22 20 18 17 16 15
153 155 155 151 149 150 149 148 150 151 151 152 153 155 156 154 150 148 148 150 151 150 148 146 144 144 146 148 148 148 147 147 147 146 144 142 143 146 145 143 145 149 154 159 163 164 165 163 150 131 109 87 68 64 80 86 78 67 64 67 69 65 59 52 41 28 18 16 17 20 25 28 25 21 21 24 24 23 22 22 21 20 18 18 18
154 155 156 153 151 151 151 151 154 155 157 160 160 156 151 148 146 146 147 148 149 149 148 146 146 147 148 149 150 149 148 147 147 146 144 142 142 144 145 147 152 158 163 168 171 171 171 168 160 148 127 99 66 44 71 106 99 74 69 77 80 75 67 58 46 31 22 21 21 23 28 30 25 22 24 25 25 23 22 22 23 21 20 20 19
154 155 157 156 154 153 154 155 158 160 162 164 161 154 148 146 147 150 150 149 149 150 151 150 150 150 150 150 150 150 148 148 148 149 149 149 148 148 150 153 158 161 165 170 173 170 163 156 151 146 138 122 69 13 55 122 124 87 75 82 87 81 70 59 47 36 30 29 27 29 33 31 23 21 24 27 25 23 22 22 24 23 22 21 20
154 156 158 157 155 155 155 155 157 161 162 161 160 156 152 149 152 154 153 153 153 154 154 153 152 152 151 150 150 150 150 150 150 151 151 150 150 152 156 162 168 171 174 175 170 161 154 149 145 144 144 141 89 46 90 117 117 100 88 89 90 82 71 62 52 44 39 36 34 35 35 30 23 20 23 26 26 22 22 23 24 23 22 22 21
157 158 158 157 156 157 155 153 154 158 159 158 159 160 157 155 156 157 157 157 158 156 153 152 152 152 153 152 151 150 150 150 150 152 154 157 161 165 167 170 175 176 172 164 157 152 150 150 148 147 145 136 100 88 107 114 110 103 95 91 89 80 67 60 54 46 39 34 34 38 36 29 24 22 22 25 25 22 21 24 24 21 20 21 22
159 160 160 158 158 157 155 153 154 157 159 159 159 160 160 159 159 161 161 160 158 155 153 154 154 154 154 153 152 152 153 154 156 158 161 162 165 165 159 154 156 158 154 147 142 140 139 141 144 146 145 136 111 100 109 110 105 103 97 91 85 74 58 46 39 34 34 34 33 35 35 29 24 23 21 22 23 21 20 23 25 21 19 20 22
160 162 162 159 158 157 156 156 158 159 160 161 160 160 162 162 162 163 162 158 155 155 156 156 156 155 155 155 156 157 158 158 155 151 149 149 154 157 154 147 143 146 153 153 148 143 140 141 144 147 152 153 136 114 107 105 101 98 94 87 79 66 48 35 26 21 24 30 32 32 31 27 24 23 21 21 22 19 17 20 23 22 20 20 21
160 163 163 160 160 160 159 160 161 161 161 161 161 161 162 162 163 163 161 157 156 157 158 158 156 157 157 157 156 155 155 152 146 141 137 134 136 144 153 152 146 142 151 164 169 167 165 167 168 169 174 172 145 121 108 106 104 100 93 83 73 56 35 24 21 16 14 21 29 30 29 26 23 22 21 22 22 19 16 17 19 20 19 20 20
160 161 161 161 161 162 161 163 164 163 161 161 161 162 163 163 163 162 160 160 159 159 158 157 158 159 159 156 153 151 150 147 144 143 141 136 131 131 139 149 151 150 153 165 179 183 182 183 184 183 176 158 134 117 113 117 117 111 98 84 69 47 22 9 9 12 14 20 29 30 28 26 24 22 22 23 21 19 17 16 16 17 18 19 20